Tracking 32938 objects as of 12-Jan-2026
HD Live streaming from Space Station
objects crossing your sky now

STARLINK-36100

Track STARLINK-36100 now!
10-day predictions
STARLINK-36100 is classified as:


NORAD ID: 66942
Int'l Code: 2025-286T
Perigee: 453.7 km
Apogee: 455.2 km
Inclination: 53.2 °
Period: 93.5 minutes
Semi major axis: 6825 km
RCS: Unknown
Launch date: December 7, 2025
Source: United States (US)
Launch site: AIR FORCE WESTERN TEST RANGE (AFWTR)
Your satellite tracking list
Your tracking list is empty




NASA's NSSDC Master Catalog

Two Line Element Set (TLE):
1 66942U 25286T   26012.25002315  .00039972  00000-0  10050-2 0  9997
2 66942  53.1583 262.6228 0001113 104.4195  21.9790 15.39591736  6128
Source of the keplerian elements: AFSPC